Location: Unspecified
(22.6800°N, 112.2000°E)
Time: 00:17:17
(UTC+08:00)

Tiros 1 despin weight - Pass Details

Date: 03 August 2021
Orbit: 593 x 641 km, 48.2° (Epoch: 19 September)

Event Time Altitude Azimuth Distance (km) Brightness Sun altitude
Rises 21:30:38 0° 293° (WNW) 2,911 ? -29.3°
Reaches altitude 10° 21:33:38 10° 274° (W) 1,993 ? -29.8°
Enters shadow 21:35:58 17° 244° (WSW) 1,586 ? -30.3°
